Airfield :
LOGIN :

Register | Disclaimer

   EN    FR    IT 

 










Legend :    VFR   Marginal VFR   IFR   Intensive IFR   Very Intensive IFR
Visi :
Ceiling :
>= 8 km
>= 3000ft
5 to 8 km
1000 to 3000 ft
1500m to 5 km
500 to 1000 ft
800 to 1500m
200 to 500 ft
< 800m
< 200 ft
Symbols :   Thunderstorms  Fog  Heavy snow  Heavy precipitations  Wind > 20 kt
SIGMETs :     Misc.  Thunderstorms  Icing  Turbulence  Mountain Waves  Volcanic Ashes







- Airport Elevation : 25 ft
- IATA code : QCY


EGXC - RAF Coningsby

CURRENT METAR :
  • 250350Z 25005KT CAVOK 07/06 Q1007 BLU

EXPIRED METARs :
  • 250250Z 26008KT 9999 FEW022 SCT060 08/05 Q1007 BLU
  • 250150Z 26008KT 9999 BKN018 08/07 Q1007 WHT

TAF TAF EGXC
Valid from the 25 at 03:00 until the 25 at 21:00 UTC


250155Z 2503/2521 26008KT 9999 SCT030
TEMPO 2503/2509 SCT015
PROB30
TEMPO 2503/2506 SCT012
TEMPO 2511/2520 26016G26KT 7000 SHRA SCT030CB
PROB30
TEMPO 2514/2519 3500 +SHRA BKN022CB
No reported NOTAMs for that airfield.



MET'MAP, your aeronautical weather chart ! - Copyright ORBIFLY December 2007 - Disclaimer

ORBIFLY MET'MAP TEAM :

Programming & Development : Alexandra Zaïnal
Concept & Development : Baudouin d'Aumeries
Co-Development & Prog : Marc-Olivier Méhu
Technical & hardware support : Manuel Goepfert

Contact : metmap@orbifly.com




SOURCES & CREDITS :

   NOAA